Location: Stull Observatory
(42.2506°N, 77.7903°W)
Time: 20:12:37
(UTC-04:00)

Okean O Rocket - Visible Passes

Search period start: 16 October 2017 00:00
Search period end: 26 October 2017 00:00
Orbit: 622 x 646 km, 98.1° (Epoch: 16 October)

Date Brightness Start Highest point End Pass type
(mag) Time Alt. Az. Time Alt. Az. Time Alt. Az.
16 Oct 4.6 03:59:56 10° ENE 04:01:12 11° E 04:02:18 10° ESE visible
16 Oct 1.5 05:33:38 10° N 05:38:01 69° WNW 05:39:45 35° SSW visible
17 Oct 4.0 04:19:54 10° NE 04:23:03 19° E 04:24:03 18° ESE visible
17 Oct 2.0 05:55:28 10° N 05:59:34 40° WNW 06:01:30 26° WSW visible
18 Oct 3.3 04:40:54 10° NNE 04:44:50 31° E 04:45:48 28° ESE visible
18 Oct 2.7 06:17:30 10° NNW 06:21:04 25° WNW 06:23:14 17° WSW visible
19 Oct 2.2 05:02:14 10° NNE 05:06:33 54° E 05:07:32 44° SE visible
19 Oct 3.2 06:39:53 10° NNW 06:42:30 16° WNW 06:44:59 10° W visible
20 Oct 1.5 05:23:48 10° NNE 05:28:13 88° WNW 05:29:16 53° SSW visible
21 Oct 4.4 04:10:37 10° NE 04:13:10 15° E 04:13:33 15° E visible
21 Oct 1.7 05:45:32 10° N 05:49:49 51° WNW 05:51:00 39° WSW visible
22 Oct 3.7 04:31:20 10° NE 04:34:59 25° E 04:35:16 25° ESE visible
22 Oct 2.4 06:07:27 10° N 06:11:21 31° WNW 06:12:43 26° WSW visible
23 Oct 2.7 04:52:32 10° NNE 04:56:44 41° E 04:56:59 41° ESE visible
23 Oct 3.0 06:29:39 10° NNW 06:32:48 20° WNW 06:34:27 16° W visible
24 Oct 1.7 05:14:00 10° NNE 05:18:25 72° E 05:18:43 69° SE visible
24 Oct 3.5 06:52:25 10° NW 06:54:11 12° WNW 06:55:58 10° W visible
25 Oct 4.7 04:01:42 10° ENE 04:02:58 12° E 04:02:58 12° E visible
25 Oct 1.5 05:35:39 10° N 05:40:02 67° WNW 05:40:26 63° WSW visible
